Home   Weather   Springfield   Past weeks

Flag for USA Past Weather in Springfield, Missouri, USA — Yesterday and Last 2 Weeks

Now
60 °F

Clear.


Feels Like: 60 °F
Forecast: 54 / 80 °F
Wind: 16 mph from South

Location: Springfield Regional Airport

Current Time: Apr 25, 2017 at 1:35:30 am

Latest Report: Apr 25, 2017 at 12:52 am


Visibility: 10 mi

Pressure: 29.63 "Hg

Humidity: 44%

Dew Point: 38 °F

Location of SpringfieldLocation

Past Weather in Springfield — Graph

°F

Springfield Temperature Yesterday

Maximum temperature yesterday: 75 °F (at 4:52 pm)
Minimum temperature yesterday: 39 °F (at 5:52 am)
Average temperature yesterday: 59 °F

High & Low Weather Summary for the Past Weeks

 TemperatureHumidityPressure
High81 °F (Apr 14, 3:52 pm)97% (Apr 17, 3:52 am)30.32 "Hg (Apr 17, 3:52 am)
Low39 °F (Apr 24, 5:52 am)21% (Apr 24, 2:52 pm)29.63 "Hg (Apr 24, 7:52 pm)
Average62 °F72%30.04 "Hg
* Reported Apr 9 11:52 pm — Apr 24 11:52 pm, Springfield, Weather by CustomWeather, © 2017

Note: Actual official high and low records may vary slightly from our data, if they occured in-between our weather recording intervals... More about our weather records

Advertising

Springfield Weather History for the Previous 24 Hours

Scroll right to see more
 ConditionsComfort  
Time TempWeatherWind HumidityBarometerVisibility
11:52 pm
Mon, Apr 24
59 °FClear.10 mph46%29.66 "Hg10 mi
10:52 pm58 °FClear.8 mph50%29.67 "Hg10 mi
9:52 pm61 °FClear.8 mph44%29.66 "Hg10 mi
8:52 pm62 °FClear.9 mph39%29.65 "Hg10 mi
7:52 pm67 °FSunny.12 mph32%29.63 "Hg10 mi
6:52 pm72 °FSunny.14 mph25%29.65 "Hg10 mi
5:52 pm74 °FSunny.17 mph23%29.66 "Hg10 mi
4:52 pm75 °FSunny.17 mph24%29.66 "Hg10 mi
3:52 pm74 °FSunny.13 mph26%29.72 "Hg10 mi
2:52 pm74 °FSunny.16 mph21%29.76 "Hg10 mi
1:52 pm72 °FSunny.16 mph24%29.79 "Hg10 mi
12:52 pm70 °FSunny.15 mph28%29.85 "Hg10 mi
11:52 am69 °FSunny.14 mph31%29.90 "Hg10 mi
10:52 am66 °FSunny.14 mph36%29.94 "Hg10 mi
9:52 am62 °FSunny.9 mph44%29.96 "Hg10 mi
8:52 am56 °FSunny.8 mph58%29.96 "Hg10 mi
7:52 am48 °FSunny.3 mph80%29.97 "Hg10 mi
6:52 am40 °FSunny.3 mph86%29.96 "Hg10 mi
5:52 am39 °FClear.5 mph86%29.96 "Hg10 mi
4:52 am42 °FClear.No wind76%29.95 "Hg10 mi
3:52 am42 °FClear.3 mph85%29.94 "Hg10 mi
2:52 am41 °FClear.No wind86%29.95 "Hg10 mi
1:52 am43 °FClear.No wind79%29.97 "Hg10 mi
Weather by CustomWeather, © 2017

See weather overviewHow to use our weather pages